This demonstration page uses our WeatherBlox Daily Observations layout. Learn more.

39.92423, -83.80882

Hourly Observations for September 7, 2019

Temp ( °F °C ) Dew Point ( °F °C ) Humidity (%) Winds ( mph kmh ) Pressure ( in mb ) Visibility ( mi km ) Precip ( " mm )
12:56 am 00:56 Cloudy 66 18.9 64 17.8 93 93 NW 8 13 29.91 1013 10 16.09344 0 0
1:12 am 01:12 Cloudy 66 19 64 18 94 94 NW 9 15 29.91 1013 10 16.09344 0 0
1:56 am 01:56 Cloudy 66 18.9 63 17.2 90 90 WNW 8 13 29.94 1014 10 16.09344 0 0
2:56 am 02:56 Cloudy 65 18.3 63 17.2 93 93 WNW 6 9 29.94 1014 10 16.09344 0 0
3:56 am 03:56 Cloudy 64 17.8 63 17.2 96 96 NW 8 13 29.94 1014 10 16.09344 0 0
4:12 am 04:12 Cloudy 64 18 63 17 94 94 NW 7 11 29.94 1014 10 16.09344 0 0
4:56 am 04:56 Cloudy with Mist and Fog 63 17.2 63 17.2 100 100 NW 6 9 29.94 1014 4 6.437376 0 0
5:11 am 05:11 Cloudy with Mist and Fog 63 17 63 17 100 100 NW 6 9 29.97 1015 5 8.04672 0 0
5:56 am 05:56 Cloudy with Mist and Fog 63 17.2 63 17.2 100 100 NW 8 13 29.94 1014 6 9.656064 0 0
6:46 am 06:46 Cloudy with Light Rain 63 17 63 17 100 100 WNW 7 11 30 1016 2 3.218688 0.001 0.001
6:56 am 06:56 Cloudy with Light Rain 63 17.2 63 17.2 100 100 NW 6 9 29.97 1015 2 3.218688 0.001 0.001
7:12 am 07:12 Cloudy with Light Rain 63 17 63 17 100 100 NW 6 9 30 1016 1.5 2.414016 0.001 0.001
7:45 am 07:45 Cloudy with Light Rain 64 18 64 18 100 100 NW 7 11 29.97 1015 2.5 4.02336 0.001 0.001
7:56 am 07:56 Cloudy with Light Rain 64 17.8 64 17.8 100 100 NNW 7 11 29.97 1015 3 4.828032 0.001 0.001
8:20 am 08:20 Cloudy with Mist and Fog 64 18 64 18 100 100 NNW 7 11 29.97 1015 6 9.656064 0.001 0.001
8:47 am 08:47 Cloudy with Mist and Fog 64 18 64 18 100 100 N 6 9 30 1016 5 8.04672 0.001 0.001
8:56 am 08:56 Cloudy 64 17.8 64 17.8 100 100 N 9 15 30 1016 7 11.265408 0.001 0.001
9:56 am 09:56 Cloudy 65 18.3 62 16.7 90 90 NNW 6 9 30.03 1017 10 16.09344 0 0
10:16 am 10:16 Cloudy 66 19 63 17 88 88 NNW 6 9 30 1016 10 16.09344 0 0
10:56 am 10:56 Cloudy 66 18.9 61 16.1 84 84 N 7 11 30.03 1017 10 16.09344 0 0
11:56 am 11:56 Cloudy 67 19.4 60 15.6 79 79 WNW 5 7 30.03 1017 10 16.09344 0 0
12:22 pm 12:22 Cloudy 68 20 61 16 78 78 W 3 6 30.03 1017 10 16.09344 0 0
12:56 pm 12:56 Cloudy 69 20.6 61 16.1 76 76 undefined N/A 30.03 1017 10 16.09344 0 0
1:14 pm 13:14 Cloudy 70 21 61 16 73 73 VRB 7 11 30 1016 10 16.09344 0 0
1:45 pm 13:45 Cloudy 72 22 61 16 69 69 VRB 5 7 30 1016 10 16.09344 0 0
1:56 pm 13:56 Mostly Cloudy 71 21.7 61 16.1 71 71 WNW 5 7 30 1016 10 16.09344 0 0
2:21 pm 14:21 Mostly Cloudy 73 23 63 17 69 69 SW 7 11 30 1016 10 16.09344 0 0
2:43 pm 14:43 Mostly Cloudy 73 23 61 16 65 65 VRB 5 7 30 1016 10 16.09344 0 0
2:56 pm 14:56 Mostly Sunny 74 23.3 61 16.1 64 64 VRB 5 7 30 1016 10 16.09344 0 0
3:56 pm 15:56 Mostly Cloudy 77 25 58 14.4 52 52 W 8 13 29.97 1015 10 16.09344 0 0
4:56 pm 16:56 Cloudy 77 25 58 14.4 52 52 NNW 9 15 29.97 1015 10 16.09344 0 0
5:56 pm 17:56 Mostly Sunny 75 23.9 60 15.6 60 60 N 9 15 29.97 1015 10 16.09344 0 0
6:56 pm 18:56 Sunny 72 22.2 58 14.4 61 61 NNW 10 17 30 1016 10 16.09344 0 0
7:56 pm 19:56 Sunny 67 19.4 58 14.4 73 73 NNW 7 11 30 1016 10 16.09344 0 0
8:56 pm 20:56 Clear 63 17.2 57 13.9 81 81 NNW 3 6 30.03 1017 10 16.09344 0 0
9:56 pm 21:56 Clear 61 16.1 57 13.9 87 87 NNW 5 7 30.03 1017 10 16.09344 0 0
10:56 pm 22:56 Clear 61 16.1 57 13.9 87 87 Calm 30.03 1017 10 16.09344 0 0
11:56 pm 23:56 Clear 58 14.4 57 13.9 97 97 Calm 30.03 1017 10 16.09344 0 0

Powered by AerisWeather